Retour au catalogue

COSMOS 761

ActifMilitaireLEO
NORAD 8285·PAYLOAD·🇷🇺 Russia

Lancé Sep 17, 1975 depuis Plesetsk Cosmodrome

Loading…

Prochains Passages (prochaines 24 heures)

TLE

FraisSource: Space-Track

Époque: Sep 14, 2026, 12:06 UTC

1 08285U 75086A   26257.50429184 -.00000020  00000-0 -22946-4 0  9995
2 08285  74.0061 266.1144 0053376 292.8660 226.9521 12.55818405337711

Suivez COSMOS 761 en temps réel avec AllMySat

Download on the App Store